| time (UTC) | temp F | wind direction | speed MPH | gust MPH | rain 1hr in | rain 24hr in | rain mn in | humidity % | barometer mb |
| 20260502190301 | 94 | 238 | 5.0 | 15.0 | 0.00 | 0.00 | 0.00 | 37 | 1011.4 |
| 20260502190002 | 94 | 219 | 6.0 | 15.0 | 0.00 | 0.00 | 0.00 | 36 | 1011.5 |
| 20260502185806 | 95 | 238 | 5.0 | 14.0 | 0.00 | 0.00 | 0.00 | 36 | 1011.4 |
| 20260502185324 | 94 | 240 | 6.0 | 19.0 | 0.00 | 0.00 | 0.00 | 37 | 1011.3 |
| 20260502184812 | 95 | 226 | 7.0 | 19.0 | 0.00 | 0.00 | 0.00 | 37 | 1011.3 |
| 20260502184514 | 94 | 232 | 5.0 | 17.0 | 0.00 | 0.00 | 0.00 | 36 | 1011.2 |
| 20260502184316 | 95 | 220 | 5.0 | 17.0 | 0.00 | 0.00 | 0.00 | 36 | 1011.2 |
| 20260502183821 | 95 | 211 | 3.0 | 14.0 | 0.00 | 0.00 | 0.00 | 36 | 1011.4 |
| 20260502183305 | 94 | 246 | 8.0 | 14.0 | 0.00 | 0.00 | 0.00 | 36 | 1011.4 |
| 20260502183101 | 94 | 229 | 5.0 | 12.0 | 0.00 | 0.00 | 0.00 | 36 | 1011.5 |
| 20260502182810 | 95 | 226 | 5.0 | 18.0 | 0.00 | 0.00 | 0.00 | 36 | 1011.5 |
| 20260502182308 | 94 | 248 | 6.0 | 18.0 | 0.00 | 0.00 | 0.00 | 36 | 1011.6 |
| 20260502181837 | 94 | 211 | 6.0 | 14.0 | 0.00 | 0.00 | 0.00 | 36 | 1011.6 |
| 20260502181512 | 93 | 255 | 5.0 | 14.0 | 0.00 | 0.00 | 0.00 | 36 | 1011.7 |
| 20260502181407 | 94 | 228 | 8.0 | 14.0 | 0.00 | 0.00 | 0.00 | 34 | 1011.7 |
| 20260502180827 | 95 | 238 | 7.0 | 13.0 | 0.00 | 0.00 | 0.00 | 35 | 1011.7 |
| 20260502180314 | 94 | 203 | 4.0 | 16.0 | 0.00 | 0.00 | 0.00 | 36 | 1011.6 |
| 20260502170301 | 92 | 249 | 3.0 | 14.0 | 0.00 | 0.00 | 0.00 | 48 | 1011.9 |
| 20260502164306 | 92 | 236 | 4.0 | 13.0 | 0.00 | 0.00 | 0.00 | 45 | 1012.1 |
| 20260502163821 | 93 | 243 | 5.0 | 10.0 | 0.00 | 0.00 | 0.00 | 45 | 1012.1 |
| 20260502163325 | 93 | 175 | 3.0 | 14.0 | 0.00 | 0.00 | 0.00 | 46 | 1012.1 |
| 20260502163009 | 91 | 95 | 4.0 | 14.0 | 0.00 | 0.00 | 0.00 | 49 | 1012.1 |
| 20260502162810 | 92 | 260 | 4.0 | 14.0 | 0.00 | 0.00 | 0.00 | 46 | 1012.2 |
| 20260502162316 | 92 | 234 | 2.0 | 12.0 | 0.00 | 0.00 | 0.00 | 51 | 1012.2 |
| 20260502161821 | 91 | 150 | 3.0 | 16.0 | 0.00 | 0.00 | 0.00 | 51 | 1012.3 |
| 20260502161556 | 90 | 221 | 1.0 | 16.0 | 0.00 | 0.00 | 0.00 | 53 | 1012.3 |
| 20260502161304 | 90 | 239 | 5.0 | 16.0 | 0.00 | 0.00 | 0.00 | 51 | 1012.3 |
| 20260502160808 | 90 | 71 | 1.0 | 8.0 | 0.00 | 0.00 | 0.00 | 55 | 1012.3 |
| 20260502160318 | 91 | 224 | 3.0 | 8.0 | 0.00 | 0.00 | 0.00 | 52 | 1012.3 |
| 20260502152315 | 90 | 39 | 2.0 | 9.0 | 0.00 | 0.00 | 0.00 | 55 | 1012.7 |
| 20260502151820 | 89 | 223 | 4.0 | 9.0 | 0.00 | 0.00 | 0.00 | 55 | 1012.8 |
| 20260502151612 | 88 | 221 | 2.0 | 10.0 | 0.00 | 0.00 | 0.00 | 56 | 1012.8 |
| 20260502151305 | 88 | 303 | 3.0 | 10.0 | 0.00 | 0.00 | 0.00 | 56 | 1012.7 |
| 20260502150805 | 89 | 233 | 2.0 | 10.0 | 0.00 | 0.00 | 0.00 | 56 | 1012.7 |
| 20260502150259 | 88 | 221 | 2.0 | 8.0 | 0.00 | 0.00 | 0.00 | 58 | 1012.7 |
| 20260502130311 | 85 | 211 | 1.0 | 5.0 | 0.00 | 0.00 | 0.00 | 63 | 1012.1 |
| 20260502123807 | 84 | 70 | 3.0 | 9.0 | 0.00 | 0.00 | 0.00 | 69 | 1012.4 |
| 20260502123337 | 83 | 96 | 2.0 | 6.0 | 0.00 | 0.00 | 0.00 | 71 | 1012.4 |
| 20260502123013 | 83 | 245 | 2.0 | 6.0 | 0.00 | 0.00 | 0.00 | 71 | 1012.3 |
| 20260502122822 | 83 | 126 | 0.0 | 6.0 | 0.00 | 0.00 | 0.00 | 72 | 1012.3 |
| 20260502122308 | 83 | 78 | 1.0 | 3.0 | 0.00 | 0.00 | 0.00 | 73 | 1012.2 |
| 20260502121814 | 82 | 110 | 0.0 | 4.0 | 0.00 | 0.00 | 0.00 | 73 | 1012.3 |
| 20260502121603 | 81 | 232 | 0.0 | 4.0 | 0.00 | 0.00 | 0.00 | 73 | 1012.3 |
| 20260502121300 | 82 | 63 | 1.0 | 4.0 | 0.00 | 0.00 | 0.00 | 74 | 1012.3 |
| 20260502120805 | 81 | 108 | 0.0 | 2.0 | 0.00 | 0.00 | 0.00 | 75 | 1012.3 |
| 20260502120311 | 80 | 356 | 0.0 | 2.0 | 0.00 | 0.00 | 0.00 | 76 | 1012.3 |
| 20260502115756 | 80 | 18 | 0.0 | 2.0 | 0.00 | 0.00 | 0.00 | 78 | 1012.3 |
| 20260502115305 | 79 | 47 | 0.0 | 1.0 | 0.00 | 0.00 | 0.00 | 79 | 1012.3 |
| 20260502114807 | 78 | 77 | 0.0 | 1.0 | 0.00 | 0.00 | 0.00 | 79 | 1012.3 |
| 20260502114551 | 77 | 68 | 0.0 | 1.0 | 0.00 | 0.00 | 0.00 | 80 | 1012.4 |
| 20260502114312 | 77 | 68 | 0.0 | 3.0 | 0.00 | 0.00 | 0.00 | 80 | 1012.3 |
| 20260502113759 | 77 | 117 | 1.0 | 3.0 | 0.00 | 0.00 | 0.00 | 80 | 1012.3 |
| 20260502113306 | 76 | 117 | 0.0 | 1.0 | 0.00 | 0.00 | 0.00 | 81 | 1012.2 |
| 20260502113043 | 75 | 116 | 0.0 | 1.0 | 0.00 | 0.00 | 0.00 | 82 | 1012.4 |
| 20260502112830 | 75 | 86 | 0.0 | 0.0 | 0.00 | 0.00 | 0.00 | 82 | 1012.4 |
| 20260502112335 | 75 | 85 | 0.0 | 0.0 | 0.00 | 0.00 | 0.00 | 81 | 1012.4 |
| 20260502111758 | 75 | 85 | 0.0 | 0.0 | 0.00 | 0.00 | 0.00 | 81 | 1012.3 |
| 20260502111604 | 74 | 85 | 0.0 | 0.0 | 0.00 | 0.00 | 0.00 | 81 | 1012.3 |
| 20260502111303 | 75 | 85 | 0.0 | 0.0 | 0.00 | 0.00 | 0.00 | 80 | 1012.3 |
| 20260502110804 | 75 | 85 | 0.0 | 0.0 | 0.00 | 0.00 | 0.00 | 80 | 1012.3 |
| 20260502110305 | 75 | 85 | 0.0 | 0.0 | 0.00 | 0.00 | 0.00 | 80 | 1012.4 |
| 20260502110025 | 75 | 85 | 0.0 | 0.0 | 0.00 | 0.00 | 0.00 | 80 | 1012.4 |
| 20260502105817 | 75 | 85 | 0.0 | 0.0 | 0.00 | 0.00 | 0.00 | 80 | 1012.4 |
| 20260502105322 | 75 | 85 | 0.0 | 0.0 | 0.00 | 0.00 | 0.00 | 79 | 1012.3 |
| 20260502104806 | 75 | 85 | 0.0 | 0.0 | 0.00 | 0.00 | 0.00 | 79 | 1012.3 |
| 20260502104511 | 75 | 85 | 0.0 | 0.0 | 0.00 | 0.00 | 0.00 | 79 | 1012.3 |
| 20260502104314 | 76 | 85 | 0.0 | 0.0 | 0.00 | 0.00 | 0.00 | 78 | 1012.2 |
| 20260502103819 | 76 | 86 | 0.0 | 0.0 | 0.00 | 0.00 | 0.00 | 78 | 1012.3 |
| 20260502103302 | 76 | 85 | 0.0 | 0.0 | 0.00 | 0.00 | 0.00 | 78 | 1012.2 |
| 20260502103056 | 76 | 85 | 0.0 | 0.0 | 0.00 | 0.00 | 0.00 | 78 | 1012.3 |
| 20260502102808 | 76 | 85 | 0.0 | 0.0 | 0.00 | 0.00 | 0.00 | 78 | 1012.2 |
| 20260502102310 | 76 | 79 | 0.0 | 0.0 | 0.00 | 0.00 | 0.00 | 78 | 1012.1 |
| 20260502101813 | 76 | 311 | 0.0 | 0.0 | 0.00 | 0.00 | 0.00 | 79 | 1012.2 |
| 20260502101610 | 75 | 311 | 0.0 | 0.0 | 0.00 | 0.00 | 0.00 | 79 | 1012.3 |
| 20260502101259 | 75 | 311 | 0.0 | 0.0 | 0.00 | 0.00 | 0.00 | 79 | 1012.3 |
| 20260502100806 | 75 | 311 | 0.0 | 0.0 | 0.00 | 0.00 | 0.00 | 79 | 1012.4 |
| 20260502100305 | 75 | 311 | 0.0 | 0.0 | 0.00 | 0.00 | 0.00 | 79 | 1012.4 |
| 20260502091504 | 74 | 311 | 0.0 | 0.0 | 0.00 | 0.00 | 0.00 | 79 | 1012.3 |
| 20260502091257 | 75 | 311 | 0.0 | 0.0 | 0.00 | 0.00 | 0.00 | 78 | 1012.2 |
| 20260502090803 | 75 | 311 | 0.0 | 0.0 | 0.00 | 0.00 | 0.00 | 79 | 1012.2 |
| 20260502090309 | 75 | 311 | 0.0 | 0.0 | 0.00 | 0.00 | 0.00 | 79 | 1012.2 |
| 20260502071506 | 75 | 115 | 0.0 | 0.0 | 0.00 | 0.00 | 0.00 | 83 | 1012.1 |
| 20260502071301 | 75 | 115 | 0.0 | 0.0 | 0.00 | 0.00 | 0.00 | 83 | 1012.0 |
| 20260502070806 | 75 | 115 | 0.0 | 0.0 | 0.00 | 0.00 | 0.00 | 83 | 1012.0 |
| 20260502070309 | 75 | 115 | 0.0 | 0.0 | 0.00 | 0.00 | 0.00 | 83 | 1012.1 |
| 20260502070009 | 74 | 115 | 0.0 | 0.0 | 0.00 | 0.00 | 0.00 | 83 | 1012.1 |
| 20260502065815 | 75 | 115 | 0.0 | 0.0 | 0.00 | 0.00 | 0.00 | 83 | 1012.0 |
| 20260502065320 | 75 | 115 | 0.0 | 0.0 | 0.00 | 0.00 | 0.00 | 84 | 1012.0 |
| 20260502064826 | 75 | 115 | 0.0 | 0.0 | 0.00 | 0.00 | 0.00 | 83 | 1012.1 |
| 20260502064556 | 74 | 115 | 0.0 | 0.0 | 0.00 | 0.00 | 0.00 | 83 | 1012.0 |
| 20260502064310 | 75 | 115 | 0.0 | 0.0 | 0.00 | 0.00 | 0.00 | 82 | 1012.1 |
| 20260502063810 | 75 | 115 | 0.0 | 0.0 | 0.00 | 0.00 | 0.00 | 83 | 1012.2 |
| 20260502063320 | 75 | 115 | 0.0 | 0.0 | 0.00 | 0.00 | 0.00 | 83 | 1012.2 |
| 20260502063017 | 74 | 115 | 0.0 | 0.0 | 0.00 | 0.00 | 0.00 | 83 | 1012.2 |
| 20260502062804 | 75 | 115 | 0.0 | 0.0 | 0.00 | 0.00 | 0.00 | 83 | 1012.3 |
| 20260502062329 | 75 | 115 | 0.0 | 0.0 | 0.00 | 0.00 | 0.00 | 82 | 1012.4 |
| 20260502061809 | 75 | 115 | 0.0 | 0.0 | 0.00 | 0.00 | 0.00 | 82 | 1012.4 |
| 20260502061527 | 74 | 115 | 0.0 | 0.0 | 0.00 | 0.00 | 0.00 | 82 | 1012.4 |
| 20260502061319 | 75 | 115 | 0.0 | 0.0 | 0.00 | 0.00 | 0.00 | 82 | 1012.4 |
| 20260502060823 | 75 | 115 | 0.0 | 0.0 | 0.00 | 0.00 | 0.00 | 81 | 1012.3 |
| 20260502060305 | 75 | 115 | 0.0 | 0.0 | 0.00 | 0.00 | 0.00 | 81 | 1012.3 |
| 20260502060023 | 75 | 115 | 0.0 | 0.0 | 0.00 | 0.00 | 0.00 | 81 | 1012.4 |
| 20260502055811 | 75 | 115 | 0.0 | 0.0 | 0.00 | 0.00 | 0.00 | 81 | 1012.4 |
| 20260502055316 | 76 | 115 | 0.0 | 0.0 | 0.00 | 0.00 | 0.00 | 81 | 1012.2 |
| 20260502054801 | 76 | 115 | 0.0 | 0.0 | 0.00 | 0.00 | 0.00 | 81 | 1012.3 |
| 20260502054612 | 75 | 115 | 0.0 | 0.0 | 0.00 | 0.00 | 0.00 | 81 | 1012.3 |
| 20260502054306 | 76 | 115 | 0.0 | 0.0 | 0.00 | 0.00 | 0.00 | 80 | 1012.3 |
| 20260502053815 | 76 | 115 | 0.0 | 0.0 | 0.00 | 0.00 | 0.00 | 80 | 1012.3 |
| 20260502053301 | 76 | 115 | 0.0 | 0.0 | 0.00 | 0.00 | 0.00 | 80 | 1012.3 |
| 20260502053055 | 76 | 115 | 0.0 | 0.0 | 0.00 | 0.00 | 0.00 | 79 | 1012.4 |
| 20260502052806 | 76 | 115 | 0.0 | 1.0 | 0.00 | 0.00 | 0.00 | 79 | 1012.4 |
| 20260502052312 | 76 | 115 | 0.0 | 1.0 | 0.00 | 0.00 | 0.00 | 80 | 1012.4 |
| 20260502051758 | 76 | 116 | 0.0 | 0.0 | 0.00 | 0.00 | 0.00 | 79 | 1012.5 |
| 20260502051604 | 76 | 115 | 0.0 | 0.0 | 0.00 | 0.00 | 0.00 | 79 | 1012.6 |
| 20260502051304 | 76 | 116 | 0.0 | 0.0 | 0.00 | 0.00 | 0.00 | 79 | 1012.6 |
| 20260502050808 | 76 | 115 | 0.0 | 0.0 | 0.00 | 0.00 | 0.00 | 79 | 1012.6 |
| 20260502050308 | 76 | 120 | 0.0 | 0.0 | 0.00 | 0.00 | 0.00 | 79 | 1012.7 |
| 20260502050026 | 76 | 120 | 0.0 | 0.0 | 0.00 | 0.00 | 0.00 | 78 | 1012.8 |
| 20260502045816 | 76 | 119 | 0.0 | 0.0 | 0.00 | 0.00 | 0.00 | 78 | 1012.7 |
| 20260502045257 | 76 | 119 | 0.0 | 0.0 | 0.00 | 0.00 | 0.00 | 78 | 1012.7 |
| 20260502044803 | 76 | 252 | 0.0 | 0.0 | 0.00 | 0.00 | 0.00 | 78 | 1012.7 |
| 20260502044505 | 76 | 252 | 0.0 | 0.0 | 0.00 | 0.00 | 0.00 | 77 | 1012.8 |
| 20260502044308 | 76 | 252 | 0.0 | 0.0 | 0.00 | 0.00 | 0.00 | 77 | 1012.8 |
| 20260502043813 | 77 | 252 | 0.0 | 0.0 | 0.00 | 0.00 | 0.00 | 77 | 1012.8 |
| 20260502043320 | 77 | 252 | 0.0 | 0.0 | 0.00 | 0.00 | 0.00 | 77 | 1012.9 |
| 20260502043109 | 76 | 252 | 0.0 | 0.0 | 0.00 | 0.00 | 0.00 | 77 | 1012.9 |
| 20260502042804 | 77 | 244 | 0.0 | 0.0 | 0.00 | 0.00 | 0.00 | 76 | 1012.9 |
| 20260502041803 | 77 | 244 | 0.0 | 0.0 | 0.00 | 0.00 | 0.00 | 75 | 1013.0 |
| 20260502041515 | 77 | 244 | 0.0 | 0.0 | 0.00 | 0.00 | 0.00 | 75 | 1012.9 |
| 20260502041310 | 77 | 244 | 0.0 | 0.0 | 0.00 | 0.00 | 0.00 | 74 | 1013.1 |
| 20260502040816 | 78 | 244 | 0.0 | 0.0 | 0.00 | 0.00 | 0.00 | 74 | 1013.2 |
| 20260502040323 | 78 | 244 | 0.0 | 0.0 | 0.00 | 0.00 | 0.00 | 74 | 1013.3 |
| 20260502040057 | 78 | 244 | 0.0 | 0.0 | 0.00 | 0.00 | 0.00 | 74 | 1013.4 |
| 20260502035829 | 78 | 244 | 0.0 | 0.0 | 0.00 | 0.00 | 0.00 | 74 | 1013.5 |
| 20260502035317 | 78 | 244 | 0.0 | 0.0 | 0.00 | 0.00 | 0.00 | 73 | 1013.3 |
| 20260502034819 | 78 | 243 | 0.0 | 3.0 | 0.00 | 0.00 | 0.00 | 73 | 1013.2 |
| 20260502034502 | 78 | 234 | 0.0 | 3.0 | 0.00 | 0.00 | 0.00 | 73 | 1013.3 |
| 20260502034304 | 78 | 254 | 0.0 | 2.0 | 0.00 | 0.00 | 0.00 | 73 | 1013.3 |
| 20260502033804 | 78 | 237 | 0.0 | 0.0 | 0.00 | 0.00 | 0.00 | 73 | 1013.3 |
| 20260502033309 | 79 | 237 | 0.0 | 1.0 | 0.00 | 0.00 | 0.00 | 72 | 1013.3 |
| 20260502033036 | 78 | 237 | 0.0 | 1.0 | 0.00 | 0.00 | 0.00 | 72 | 1013.3 |
| 20260502032807 | 79 | 237 | 0.0 | 1.0 | 0.00 | 0.00 | 0.00 | 72 | 1013.3 |
| 20260502032336 | 79 | 232 | 0.0 | 1.0 | 0.00 | 0.00 | 0.00 | 72 | 1013.2 |
| 20260502031801 | 79 | 226 | 0.0 | 2.0 | 0.00 | 0.00 | 0.00 | 72 | 1013.3 |
| 20260502031505 | 78 | 225 | 0.0 | 2.0 | 0.00 | 0.00 | 0.00 | 72 | 1013.1 |
| 20260502031305 | 79 | 225 | 1.0 | 2.0 | 0.00 | 0.00 | 0.00 | 72 | 1013.1 |
| 20260502030811 | 79 | 240 | 0.0 | 1.0 | 0.00 | 0.00 | 0.00 | 72 | 1013.2 |
| 20260502030317 | 79 | 232 | 0.0 | 0.0 | 0.00 | 0.00 | 0.00 | 72 | 1013.1 |
| 20260502030007 | 78 | 232 | 0.0 | 0.0 | 0.00 | 0.00 | 0.00 | 71 | 1013.2 |
| 20260502025802 | 79 | 184 | 0.0 | 1.0 | 0.00 | 0.00 | 0.00 | 71 | 1013.2 |
| 20260502025307 | 79 | 234 | 0.0 | 1.0 | 0.00 | 0.00 | 0.00 | 71 | 1013.1 |
| 20260502024833 | 79 | 14 | 0.0 | 2.0 | 0.00 | 0.00 | 0.00 | 71 | 1013.2 |
| 20260502024605 | 79 | 242 | 0.0 | 2.0 | 0.00 | 0.00 | 0.00 | 71 | 1013.2 |
| 20260502024259 | 79 | 217 | 0.0 | 3.0 | 0.00 | 0.00 | 0.00 | 71 | 1013.2 |
| 20260502023759 | 79 | 126 | 1.0 | 3.0 | 0.00 | 0.00 | 0.00 | 71 | 1013.0 |
| 20260502023300 | 79 | 197 | 1.0 | 1.0 | 0.00 | 0.00 | 0.00 | 71 | 1012.9 |
| 20260502023045 | 79 | 289 | 0.0 | 1.0 | 0.00 | 0.00 | 0.00 | 71 | 1012.9 |
| 20260502022800 | 79 | 219 | 0.0 | 1.0 | 0.00 | 0.00 | 0.00 | 71 | 1012.8 |
| 20260502022329 | 79 | 113 | 0.0 | 1.0 | 0.00 | 0.00 | 0.00 | 71 | 1012.7 |
| 20260502021815 | 80 | 226 | 0.0 | 2.0 | 0.00 | 0.00 | 0.00 | 70 | 1012.7 |
| 20260502021504 | 79 | 216 | 0.0 | 2.0 | 0.00 | 0.00 | 0.00 | 70 | 1012.7 |
| 20260502021302 | 80 | 75 | 1.0 | 2.0 | 0.00 | 0.00 | 0.00 | 70 | 1012.7 |
| 20260502020808 | 80 | 248 | 0.0 | 3.0 | 0.00 | 0.00 | 0.00 | 70 | 1012.7 |
| 20260502020334 | 80 | 107 | 0.0 | 3.0 | 0.00 | 0.00 | 0.00 | 70 | 1012.6 |
| 20260502020050 | 79 | 77 | 0.0 | 3.0 | 0.00 | 0.00 | 0.00 | 70 | 1012.6 |
| 20260502015759 | 80 | 18 | 1.0 | 2.0 | 0.00 | 0.00 | 0.00 | 70 | 1012.6 |
| 20260502015305 | 80 | 131 | 0.0 | 3.0 | 0.00 | 0.00 | 0.00 | 70 | 1012.6 |
| 20260502014804 | 80 | 31 | 1.0 | 4.0 | 0.00 | 0.00 | 0.00 | 69 | 1012.6 |
| 20260502014531 | 80 | 84 | 0.0 | 4.0 | 0.00 | 0.00 | 0.00 | 69 | 1012.6 |
| 20260502014314 | 80 | 219 | 1.0 | 4.0 | 0.00 | 0.00 | 0.00 | 69 | 1012.5 |
| 20260502013807 | 80 | 91 | 1.0 | 4.0 | 0.00 | 0.00 | 0.00 | 69 | 1012.5 |
| 20260502013306 | 80 | 78 | 1.0 | 6.0 | 0.00 | 0.00 | 0.00 | 68 | 1012.4 |
| 20260502013031 | 80 | 63 | 0.0 | 6.0 | 0.00 | 0.00 | 0.00 | 68 | 1012.4 |
| 20260502012807 | 81 | 252 | 1.0 | 6.0 | 0.00 | 0.00 | 0.00 | 68 | 1012.3 |
| 20260502012325 | 81 | 96 | 2.0 | 5.0 | 0.00 | 0.00 | 0.00 | 68 | 1012.3 |
| 20260502011828 | 81 | 89 | 0.0 | 6.0 | 0.00 | 0.00 | 0.00 | 67 | 1012.3 |
| 20260502011514 | 80 | 57 | 1.0 | 6.0 | 0.00 | 0.00 | 0.00 | 67 | 1012.2 |
| 20260502011334 | 81 | 67 | 1.0 | 6.0 | 0.00 | 0.00 | 0.00 | 67 | 1012.1 |
| 20260502010800 | 81 | 107 | 0.0 | 6.0 | 0.00 | 0.00 | 0.00 | 66 | 1012.1 |
| 20260502010308 | 81 | 100 | 0.0 | 10.0 | 0.00 | 0.00 | 0.00 | 66 | 1012.0 |
| 20260502010006 | 80 | 100 | 1.0 | 10.0 | 0.00 | 0.00 | 0.00 | 65 | 1011.9 |
| 20260502005804 | 81 | 80 | 2.0 | 10.0 | 0.00 | 0.00 | 0.00 | 65 | 1011.9 |
| 20260502005310 | 81 | 12 | 3.0 | 8.0 | 0.00 | 0.00 | 0.00 | 65 | 1011.8 |
| 20260502004815 | 81 | 91 | 3.0 | 12.0 | 0.00 | 0.00 | 0.00 | 65 | 1011.7 |
| 20260502004512 | 81 | 112 | 2.0 | 12.0 | 0.00 | 0.00 | 0.00 | 64 | 1011.7 |
| 20260502004321 | 81 | 77 | 1.0 | 12.0 | 0.00 | 0.00 | 0.00 | 64 | 1011.8 |
| 20260502003805 | 81 | 34 | 2.0 | 7.0 | 0.00 | 0.00 | 0.00 | 63 | 1011.6 |
| 20260502003311 | 81 | 167 | 0.0 | 3.0 | 0.00 | 0.00 | 0.00 | 63 | 1011.6 |
| 20260502003042 | 81 | 22 | 1.0 | 3.0 | 0.00 | 0.00 | 0.00 | 63 | 1011.5 |
| 20260502002811 | 81 | 82 | 0.0 | 3.0 | 0.00 | 0.00 | 0.00 | 63 | 1011.4 |
| 20260502002321 | 81 | 96 | 0.0 | 4.0 | 0.00 | 0.00 | 0.00 | 63 | 1011.4 |
| 20260502001801 | 82 | 170 | 2.0 | 10.0 | 0.00 | 0.00 | 0.00 | 62 | 1011.2 |
| 20260502001511 | 81 | 122 | 2.0 | 10.0 | 0.00 | 0.00 | 0.00 | 62 | 1011.1 |
| 20260502001306 | 82 | 150 | 2.0 | 6.0 | 0.00 | 0.00 | 0.00 | 62 | 1011.2 |
| 20260502000832 | 82 | 94 | 1.0 | 10.0 | 0.00 | 0.00 | 0.00 | 61 | 1011.1 |
| 20260502000258 | 82 | 82 | 2.0 | 10.0 | 0.00 | 0.00 | 0.00 | 61 | 1011.0 |
| 20260502000108 | 81 | 118 | 4.0 | 10.0 | 0.00 | 0.00 | 0.00 | 61 | 1011.0 |
| 20260501235802 | 82 | 122 | 3.0 | 7.0 | 0.00 | 0.00 | 0.00 | 61 | 1011.0 |
| 20260501235308 | 82 | 82 | 1.0 | 8.0 | 0.00 | 0.00 | 0.00 | 61 | 1011.1 |
| 20260501234814 | 82 | 141 | 4.0 | 8.0 | 0.00 | 0.00 | 0.00 | 60 | 1010.9 |
| 20260501234618 | 82 | 109 | 2.0 | 8.0 | 0.00 | 0.00 | 0.00 | 60 | 1010.9 |
| 20260501234258 | 82 | 42 | 5.0 | 8.0 | 0.00 | 0.00 | 0.00 | 60 | 1010.9 |
| 20260501233804 | 82 | 110 | 4.0 | 7.0 | 0.00 | 0.00 | 0.00 | 61 | 1011.0 |
| 20260501233308 | 82 | 69 | 4.0 | 10.0 | 0.00 | 0.00 | 0.00 | 60 | 1010.9 |
| 20260501233102 | 82 | 60 | 3.0 | 10.0 | 0.00 | 0.00 | 0.00 | 61 | 1010.9 |
| 20260501232807 | 82 | 76 | 6.0 | 10.0 | 0.00 | 0.00 | 0.00 | 60 | 1010.9 |
| 20260501232313 | 82 | 61 | 5.0 | 10.0 | 0.00 | 0.00 | 0.00 | 60 | 1010.8 |
| 20260501231806 | 83 | 127 | 4.0 | 10.0 | 0.00 | 0.00 | 0.00 | 60 | 1010.8 |
| 20260501231628 | 82 | 101 | 2.0 | 10.0 | 0.00 | 0.00 | 0.00 | 60 | 1010.8 |
| 20260501231312 | 83 | 41 | 5.0 | 10.0 | 0.00 | 0.00 | 0.00 | 59 | 1010.9 |
| 20260501230806 | 83 | 89 | 5.0 | 10.0 | 0.00 | 0.00 | 0.00 | 59 | 1010.9 |
| 20260501230302 | 83 | 143 | 4.0 | 10.0 | 0.00 | 0.00 | 0.00 | 59 | 1010.7 |
| 20260501225804 | 83 | 213 | 3.0 | 12.0 | 0.00 | 0.00 | 0.00 | 59 | 1010.7 |
| 20260501225318 | 83 | 28 | 4.0 | 12.0 | 0.00 | 0.00 | 0.00 | 60 | 1010.7 |
| 20260501224824 | 83 | 155 | 4.0 | 12.0 | 0.00 | 0.00 | 0.00 | 59 | 1010.8 |
| 20260501224508 | 83 | 44 | 4.0 | 12.0 | 0.00 | 0.00 | 0.00 | 59 | 1010.7 |
| 20260501224308 | 83 | 86 | 6.0 | 12.0 | 0.00 | 0.00 | 0.00 | 59 | 1010.8 |
| 20260501223809 | 84 | 87 | 7.0 | 12.0 | 0.00 | 0.00 | 0.00 | 58 | 1010.8 |
| 20260501223317 | 84 | 77 | 5.0 | 12.0 | 0.00 | 0.00 | 0.00 | 60 | 1010.7 |
| 20260501223104 | 83 | 80 | 3.0 | 12.0 | 0.00 | 0.00 | 0.00 | 60 | 1010.6 |
| 20260501222802 | 83 | 65 | 6.0 | 12.0 | 0.00 | 0.00 | 0.00 | 60 | 1010.6 |
| 20260501222327 | 84 | 49 | 5.0 | 11.0 | 0.00 | 0.00 | 0.00 | 59 | 1010.5 |
| 20260501221815 | 84 | 111 | 4.0 | 11.0 | 0.00 | 0.00 | 0.00 | 58 | 1010.5 |
| 20260501221513 | 84 | 103 | 5.0 | 11.0 | 0.00 | 0.00 | 0.00 | 58 | 1010.6 |
| 20260501221303 | 84 | 72 | 3.0 | 11.0 | 0.00 | 0.00 | 0.00 | 59 | 1010.6 |
| 20260501220808 | 84 | 110 | 5.0 | 11.0 | 0.00 | 0.00 | 0.00 | 57 | 1010.6 |
| 20260501220304 | 85 | 63 | 4.0 | 11.0 | 0.00 | 0.00 | 0.00 | 58 | 1010.5 |
| 20260501220005 | 84 | 349 | 4.0 | 13.0 | 0.00 | 0.00 | 0.00 | 57 | 1010.5 |
| 20260501215825 | 85 | 49 | 6.0 | 13.0 | 0.00 | 0.00 | 0.00 | 58 | 1010.6 |
| 20260501215310 | 85 | 72 | 7.0 | 13.0 | 0.00 | 0.00 | 0.00 | 57 | 1010.6 |
| 20260501214815 | 85 | 134 | 4.0 | 9.0 | 0.00 | 0.00 | 0.00 | 57 | 1010.6 |
| 20260501214553 | 84 | 127 | 4.0 | 12.0 | 0.00 | 0.00 | 0.00 | 57 | 1010.6 |
| 20260501214301 | 85 | 49 | 4.0 | 12.0 | 0.00 | 0.00 | 0.00 | 57 | 1010.6 |
| 20260501213805 | 85 | 46 | 7.0 | 12.0 | 0.00 | 0.00 | 0.00 | 57 | 1010.5 |
| 20260501213306 | 85 | 91 | 6.0 | 14.0 | 0.00 | 0.00 | 0.00 | 57 | 1010.5 |
| 20260501213039 | 85 | 113 | 7.0 | 14.0 | 0.00 | 0.00 | 0.00 | 57 | 1010.5 |
| 20260501212800 | 85 | 76 | 6.0 | 14.0 | 0.00 | 0.00 | 0.00 | 57 | 1010.5 |
| 20260501212306 | 85 | 68 | 6.0 | 17.0 | 0.00 | 0.00 | 0.00 | 57 | 1010.5 |
| 20260501211806 | 85 | 39 | 8.0 | 17.0 | 0.00 | 0.00 | 0.00 | 57 | 1010.6 |
| 20260501211525 | 85 | 83 | 8.0 | 17.0 | 0.00 | 0.00 | 0.00 | 56 | 1010.4 |
| 20260501211334 | 86 | 55 | 8.0 | 13.0 | 0.00 | 0.00 | 0.00 | 56 | 1010.5 |
| 20260501210800 | 86 | 127 | 7.0 | 14.0 | 0.00 | 0.00 | 0.00 | 56 | 1010.6 |
| 20260501210305 | 86 | 129 | 6.0 | 15.0 | 0.00 | 0.00 | 0.00 | 56 | 1010.7 |
| 20260501210010 | 86 | 108 | 6.0 | 15.0 | 0.00 | 0.00 | 0.00 | 56 | 1010.7 |
| 20260501205812 | 87 | 92 | 5.0 | 14.0 | 0.00 | 0.00 | 0.00 | 56 | 1010.8 |
| 20260501205318 | 86 | 98 | 7.0 | 14.0 | 0.00 | 0.00 | 0.00 | 56 | 1010.8 |
| 20260501204820 | 87 | 60 | 7.0 | 17.0 | 0.00 | 0.00 | 0.00 | 55 | 1010.7 |
| 20260501204515 | 86 | 108 | 5.0 | 17.0 | 0.00 | 0.00 | 0.00 | 55 | 1010.7 |
| 20260501204325 | 87 | 66 | 7.0 | 17.0 | 0.00 | 0.00 | 0.00 | 55 | 1010.7 |
| 20260501203805 | 87 | 77 | 5.0 | 10.0 | 0.00 | 0.00 | 0.00 | 54 | 1010.8 |
| 20260501203304 | 87 | 54 | 7.0 | 13.0 | 0.00 | 0.00 | 0.00 | 54 | 1010.8 |
| 20260501203023 | 87 | 74 | 5.0 | 13.0 | 0.00 | 0.00 | 0.00 | 53 | 1010.9 |
| 20260501202811 | 87 | 42 | 6.0 | 13.0 | 0.00 | 0.00 | 0.00 | 53 | 1010.9 |
| 20260501202311 | 87 | 110 | 5.0 | 12.0 | 0.00 | 0.00 | 0.00 | 54 | 1010.9 |
| 20260501201830 | 87 | 64 | 7.0 | 12.0 | 0.00 | 0.00 | 0.00 | 53 | 1010.9 |
| 20260501201532 | 87 | 64 | 5.0 | 10.0 | 0.00 | 0.00 | 0.00 | 54 | 1010.9 |
| 20260501201325 | 87 | 67 | 7.0 | 12.0 | 0.00 | 0.00 | 0.00 | 53 | 1010.9 |
| 20260501200830 | 87 | 75 | 6.0 | 12.0 | 0.00 | 0.00 | 0.00 | 55 | 1011.0 |
| 20260501200316 | 87 | 84 | 7.0 | 12.0 | 0.00 | 0.00 | 0.00 | 54 | 1011.1 |
| 20260501200058 | 87 | 135 | 4.0 | 9.0 | 0.00 | 0.00 | 0.00 | 55 | 1011.1 |
| 20260501195802 | 87 | 73 | 5.0 | 9.0 | 0.00 | 0.00 | 0.00 | 53 | 1011.0 |
| 20260501195308 | 87 | 68 | 4.0 | 10.0 | 0.00 | 0.00 | 0.00 | 53 | 1011.1 |
| 20260501194804 | 87 | 154 | 5.0 | 10.0 | 0.00 | 0.00 | 0.00 | 55 | 1011.2 |
| 20260501194534 | 87 | 110 | 4.0 | 10.0 | 0.00 | 0.00 | 0.00 | 54 | 1011.3 |
| 20260501194304 | 87 | 106 | 5.0 | 10.0 | 0.00 | 0.00 | 0.00 | 54 | 1011.3 |
| 20260501193809 | 88 | 54 | 3.0 | 14.0 | 0.00 | 0.00 | 0.00 | 52 | 1011.4 |
| 20260501193344 | 87 | 143 | 6.0 | 14.0 | 0.00 | 0.00 | 0.00 | 54 | 1011.6 |
| 20260501193015 | 87 | 72 | 6.0 | 14.0 | 0.00 | 0.00 | 0.00 | 54 | 1011.4 |
| 20260501192829 | 88 | 72 | 7.0 | 12.0 | 0.00 | 0.00 | 0.00 | 52 | 1011.6 |
| 20260501192307 | 88 | 72 | 5.0 | 13.0 | 0.00 | 0.00 | 0.00 | 53 | 1011.6 |
| 20260501191812 | 88 | 79 | 7.0 | 12.0 | 0.00 | 0.00 | 0.00 | 52 | 1011.6 |
| 20260501191550 | 88 | 105 | 6.0 | 12.0 | 0.00 | 0.00 | 0.00 | 52 | 1011.7 |
| 20260501191300 | 88 | 79 | 7.0 | 12.0 | 0.00 | 0.00 | 0.00 | 52 | 1011.7 |
| 20260501190827 | 88 | 93 | 6.0 | 11.0 | 0.00 | 0.00 | 0.00 | 52 | 1011.8 |